Time,TemperatureF,DewpointF,PressureIn,WindDirection,WindDirectionDegrees,WindSpeedMPH,WindSpeedGustMPH,Humidity,HourlyPrecipIn,Conditions,Clouds,dailyrainin,SoftwareType,DateUTC
2013-11-26 00:03:00,29.8,25.9,30.14,WNW,292,3.1,3.1,85,0.00,,,0.00,VWS V14.01,2013-11-26 06:03:00,
2013-11-26 00:08:00,29.8,25.9,30.14,WNW,292,3.1,3.1,85,0.00,,,0.00,VWS V14.01,2013-11-26 06:08:00,
2013-11-26 00:13:00,29.6,25.6,30.14,WNW,292,2.9,2.9,85,0.00,,,0.00,VWS V14.01,2013-11-26 06:13:00,
2013-11-26 00:18:00,29.4,25.5,30.14,WNW,292,0.0,0.0,85,0.00,,,0.00,VWS V14.01,2013-11-26 06:18:00,
2013-11-26 00:23:00,29.1,25.2,30.14,WNW,292,0.0,0.0,85,0.00,,,0.00,VWS V14.01,2013-11-26 06:23:00,
2013-11-26 00:28:00,29.1,25.2,30.14,West,270,0.0,0.0,85,0.00,,,0.00,VWS V14.01,2013-11-26 06:28:00,
2013-11-26 00:33:00,28.9,25.0,30.14,West,270,0.0,0.0,85,0.00,,,0.00,VWS V14.01,2013-11-26 06:33:00,
2013-11-26 00:38:00,28.5,24.6,30.14,West,270,0.0,0.0,85,0.00,,,0.00,VWS V14.01,2013-11-26 06:38:00,
2013-11-26 00:43:00,28.2,24.3,30.14,West,270,0.0,0.0,85,0.00,,,0.00,VWS V14.01,2013-11-26 06:43:00,
2013-11-26 00:48:00,28.0,24.1,30.13,West,270,0.0,0.0,85,0.00,,,0.00,VWS V14.01,2013-11-26 06:48:00,
2013-11-26 00:53:00,27.5,23.6,30.13,West,270,0.0,0.0,85,0.00,,,0.00,VWS V14.01,2013-11-26 06:53:00,
2013-11-26 00:58:00,27.3,23.4,30.13,West,270,0.0,0.0,85,0.00,,,0.00,VWS V14.01,2013-11-26 06:58:00,
2013-11-26 01:03:00,27.1,23.2,30.13,West,270,0.0,0.0,85,0.00,,,0.00,VWS V14.01,2013-11-26 07:03:00,
2013-11-26 01:08:00,27.1,23.2,30.13,SW,225,0.0,0.0,85,0.00,,,0.00,VWS V14.01,2013-11-26 07:08:00,
2013-11-26 01:13:00,26.4,22.8,30.13,SW,225,0.0,0.0,86,0.00,,,0.00,VWS V14.01,2013-11-26 07:13:00,
2013-11-26 01:18:00,26.4,22.8,30.14,SW,225,0.0,0.0,86,0.00,,,0.00,VWS V14.01,2013-11-26 07:18:00,
2013-11-26 01:23:00,26.6,23.0,30.14,SW,225,1.1,1.1,86,0.00,,,0.00,VWS V14.01,2013-11-26 07:23:00,
2013-11-26 01:28:00,26.6,23.0,30.14,SW,225,2.6,2.6,86,0.00,,,0.00,VWS V14.01,2013-11-26 07:28:00,
2013-11-26 01:33:00,26.4,22.8,30.14,SW,225,2.4,2.4,86,0.00,,,0.00,VWS V14.01,2013-11-26 07:33:00,
2013-11-26 01:38:00,26.4,22.8,30.14,SW,225,2.4,2.4,86,0.00,,,0.00,VWS V14.01,2013-11-26 07:38:00,
2013-11-26 01:42:00,26.2,22.6,30.14,SW,225,2.4,2.4,86,0.00,,,0.00,VWS V14.01,2013-11-26 07:42:00,
2013-11-26 01:47:00,26.0,22.4,30.14,SW,225,0.6,0.6,86,0.00,,,0.00,VWS V14.01,2013-11-26 07:47:00,
2013-11-26 01:52:00,25.7,22.1,30.15,SW,225,2.4,2.4,86,0.00,,,0.00,VWS V14.01,2013-11-26 07:52:00,
2013-11-26 01:57:00,25.5,21.9,30.15,SW,225,2.2,2.2,86,0.00,,,0.00,VWS V14.01,2013-11-26 07:57:00,
2013-11-26 02:02:00,25.5,21.9,30.15,SW,225,2.6,2.6,86,0.00,,,0.00,VWS V14.01,2013-11-26 08:02:00,
2013-11-26 02:07:00,25.3,22.0,30.15,SW,225,3.3,3.3,87,0.00,,,0.00,VWS V14.01,2013-11-26 08:07:00,
2013-11-26 02:12:00,25.5,22.2,30.16,SW,225,2.6,2.6,87,0.00,,,0.00,VWS V14.01,2013-11-26 08:12:00,
2013-11-26 02:17:00,25.5,22.2,30.15,SW,225,1.5,1.5,87,0.00,,,0.00,VWS V14.01,2013-11-26 08:17:00,
2013-11-26 02:22:00,25.7,22.4,30.15,SW,225,2.6,2.6,87,0.00,,,0.00,VWS V14.01,2013-11-26 08:22:00,
2013-11-26 02:27:00,25.7,22.4,30.15,SW,225,3.1,3.1,87,0.00,,,0.00,VWS V14.01,2013-11-26 08:27:00,
2013-11-26 02:32:00,25.7,22.4,30.15,SW,225,2.4,2.4,87,0.00,,,0.00,VWS V14.01,2013-11-26 08:32:00,
2013-11-26 02:37:00,25.8,22.5,30.16,SSW,202,3.8,3.8,87,0.00,,,0.00,VWS V14.01,2013-11-26 08:37:00,
2013-11-26 02:42:00,25.8,22.5,30.16,SW,225,2.2,2.2,87,0.00,,,0.00,VWS V14.01,2013-11-26 08:42:00,
2013-11-26 02:47:00,25.8,22.5,30.16,SW,225,1.3,1.3,87,0.00,,,0.00,VWS V14.01,2013-11-26 08:47:00,
2013-11-26 02:52:00,25.8,22.5,30.15,WSW,248,0.0,0.0,87,0.00,,,0.00,VWS V14.01,2013-11-26 08:52:00,
2013-11-26 02:57:00,25.8,22.5,30.16,West,270,1.3,1.3,87,0.00,,,0.00,VWS V14.01,2013-11-26 08:57:00,
2013-11-26 03:02:00,25.8,22.5,30.15,West,270,0.0,0.0,87,0.00,,,0.00,VWS V14.01,2013-11-26 09:02:00,
2013-11-26 03:07:00,25.8,22.5,30.15,SW,225,0.0,0.0,87,0.00,,,0.00,VWS V14.01,2013-11-26 09:07:00,
2013-11-26 03:12:00,25.8,22.5,30.15,WNW,292,2.9,2.9,87,0.00,,,0.00,VWS V14.01,2013-11-26 09:12:00,
2013-11-26 03:17:00,25.8,22.5,30.15,WNW,292,3.1,3.1,87,0.00,,,0.00,VWS V14.01,2013-11-26 09:17:00,
2013-11-26 03:22:00,25.8,22.5,30.15,WNW,292,2.0,2.0,87,0.00,,,0.00,VWS V14.01,2013-11-26 09:22:00,
2013-11-26 03:27:00,26.0,22.7,30.14,WNW,292,2.4,2.4,87,0.00,,,0.00,VWS V14.01,2013-11-26 09:27:00,
2013-11-26 03:32:00,26.2,23.1,30.15,WNW,292,2.6,2.6,88,0.00,,,0.00,VWS V14.01,2013-11-26 09:32:00,
2013-11-26 03:37:00,26.4,23.3,30.14,WNW,292,4.4,4.4,88,0.00,,,0.00,VWS V14.01,2013-11-26 09:37:00,
2013-11-26 03:42:00,26.4,23.3,30.14,WNW,292,0.0,0.0,88,0.00,,,0.00,VWS V14.01,2013-11-26 09:42:00,
2013-11-26 03:47:00,26.4,23.3,30.14,WNW,292,5.8,5.8,88,0.00,,,0.00,VWS V14.01,2013-11-26 09:47:00,
2013-11-26 03:52:00,26.6,23.5,30.13,WNW,292,1.5,1.5,88,0.00,,,0.00,VWS V14.01,2013-11-26 09:52:00,
2013-11-26 03:57:00,26.7,23.6,30.13,WNW,292,6.4,6.4,88,0.00,,,0.00,VWS V14.01,2013-11-26 09:57:00,
2013-11-26 04:02:00,26.7,23.4,30.13,NW,315,2.6,2.6,87,0.00,,,0.00,VWS V14.01,2013-11-26 10:02:00,
2013-11-26 04:07:00,26.7,23.4,30.13,West,270,1.5,1.5,87,0.00,,,0.00,VWS V14.01,2013-11-26 10:07:00,
2013-11-26 04:12:00,26.7,23.4,30.13,West,270,0.0,0.0,87,0.00,,,0.00,VWS V14.01,2013-11-26 10:12:00,
2013-11-26 04:17:00,26.7,23.4,30.13,WNW,292,0.0,0.0,87,0.00,,,0.00,VWS V14.01,2013-11-26 10:17:00,
2013-11-26 04:22:00,26.7,23.4,30.13,West,270,1.7,1.7,87,0.00,,,0.00,VWS V14.01,2013-11-26 10:22:00,
2013-11-26 04:27:00,26.6,23.3,30.13,SW,225,1.1,1.1,87,0.00,,,0.00,VWS V14.01,2013-11-26 10:27:00,
2013-11-26 04:32:00,26.6,23.3,30.13,WSW,248,0.0,0.0,87,0.00,,,0.00,VWS V14.01,2013-11-26 10:32:00,
2013-11-26 04:37:00,26.7,23.4,30.13,SSW,202,0.0,0.0,87,0.00,,,0.00,VWS V14.01,2013-11-26 10:37:00,
2013-11-26 04:42:00,26.6,23.3,30.13,SW,225,1.1,1.1,87,0.00,,,0.00,VWS V14.01,2013-11-26 10:42:00,
2013-11-26 04:47:00,26.7,23.4,30.13,WSW,248,0.0,0.0,87,0.00,,,0.00,VWS V14.01,2013-11-26 10:47:00,
2013-11-26 04:52:00,26.6,23.3,30.13,West,270,0.0,0.0,87,0.00,,,0.00,VWS V14.01,2013-11-26 10:52:00,
2013-11-26 04:57:00,26.7,23.4,30.13,West,270,0.0,0.0,87,0.00,,,0.00,VWS V14.01,2013-11-26 10:57:00,
2013-11-26 05:02:00,26.7,23.4,30.14,West,270,1.7,1.7,87,0.00,,,0.00,VWS V14.01,2013-11-26 11:02:00,
2013-11-26 05:07:00,26.9,23.6,30.14,WNW,292,4.0,4.0,87,0.00,,,0.00,VWS V14.01,2013-11-26 11:07:00,
2013-11-26 05:12:00,27.1,23.8,30.14,WNW,292,1.5,1.5,87,0.00,,,0.00,VWS V14.01,2013-11-26 11:12:00,
2013-11-26 05:17:00,27.6,24.2,30.14,West,270,3.1,3.1,87,0.00,,,0.00,VWS V14.01,2013-11-26 11:17:00,
2013-11-26 05:22:00,28.0,24.4,30.14,WNW,292,6.2,6.2,86,0.00,,,0.00,VWS V14.01,2013-11-26 11:22:00,
2013-11-26 05:27:00,28.2,24.3,30.15,West,270,3.5,3.5,85,0.00,,,0.00,VWS V14.01,2013-11-26 11:27:00,
2013-11-26 05:32:00,28.2,24.3,30.14,WSW,248,3.1,3.1,85,0.00,,,0.00,VWS V14.01,2013-11-26 11:32:00,
2013-11-26 05:37:00,28.2,24.0,30.15,West,270,2.4,2.4,84,0.00,,,0.00,VWS V14.01,2013-11-26 11:37:00,
2013-11-26 05:42:00,28.2,24.0,30.15,West,270,0.0,0.0,84,0.00,,,0.00,VWS V14.01,2013-11-26 11:42:00,
2013-11-26 05:47:00,28.2,24.0,30.15,WNW,292,0.0,0.0,84,0.00,,,0.00,VWS V14.01,2013-11-26 11:47:00,
2013-11-26 05:52:00,28.0,23.8,30.15,WSW,248,0.0,0.0,84,0.00,,,0.00,VWS V14.01,2013-11-26 11:52:00,
2013-11-26 05:57:00,28.0,23.8,30.15,West,270,0.0,0.0,84,0.00,,,0.00,VWS V14.01,2013-11-26 11:57:00,
2013-11-26 06:02:00,27.6,23.4,30.15,West,270,1.3,1.3,84,0.00,,,0.00,VWS V14.01,2013-11-26 12:02:00,
2013-11-26 06:07:00,27.6,23.4,30.16,WSW,248,0.0,0.0,84,0.00,,,0.00,VWS V14.01,2013-11-26 12:07:00,
2013-11-26 06:12:00,27.6,23.4,30.15,WSW,248,0.0,0.0,84,0.00,,,0.00,VWS V14.01,2013-11-26 12:12:00,
2013-11-26 06:17:00,27.6,23.4,30.16,SW,225,0.0,0.0,84,0.00,,,0.00,VWS V14.01,2013-11-26 12:17:00,
2013-11-26 06:22:00,27.6,23.4,30.15,West,270,0.0,0.0,84,0.00,,,0.00,VWS V14.01,2013-11-26 12:22:00,
2013-11-26 06:27:00,27.6,23.4,30.15,SW,225,0.0,0.0,84,0.00,,,0.00,VWS V14.01,2013-11-26 12:27:00,
2013-11-26 06:32:00,27.6,23.7,30.15,West,270,0.0,0.0,85,0.00,,,0.00,VWS V14.01,2013-11-26 12:32:00,
2013-11-26 06:37:00,27.6,23.7,30.15,West,270,0.0,0.0,85,0.00,,,0.00,VWS V14.01,2013-11-26 12:37:00,
2013-11-26 06:42:00,27.6,23.7,30.16,SW,225,0.6,0.6,85,0.00,,,0.00,VWS V14.01,2013-11-26 12:42:00,
2013-11-26 06:47:00,27.6,23.7,30.15,West,270,0.0,0.0,85,0.00,,,0.00,VWS V14.01,2013-11-26 12:47:00,
2013-11-26 06:52:00,27.6,23.7,30.16,WNW,292,1.5,1.5,85,0.00,,,0.00,VWS V14.01,2013-11-26 12:52:00,
2013-11-26 06:57:00,27.6,23.7,30.15,West,270,4.6,4.6,85,0.00,,,0.00,VWS V14.01,2013-11-26 12:57:00,
2013-11-26 07:02:00,28.0,24.1,30.15,West,270,7.1,7.1,85,0.00,,,0.00,VWS V14.01,2013-11-26 13:02:00,
2013-11-26 07:07:00,28.2,24.0,30.15,West,270,1.3,1.3,84,0.00,,,0.00,VWS V14.01,2013-11-26 13:07:00,
2013-11-26 07:12:00,28.2,24.0,30.15,West,270,6.9,6.9,84,0.00,,,0.00,VWS V14.01,2013-11-26 13:12:00,
2013-11-26 07:17:00,28.5,24.0,30.15,WNW,292,6.4,6.4,83,0.00,,,0.00,VWS V14.01,2013-11-26 13:17:00,
2013-11-26 07:22:00,28.5,24.0,30.15,NW,315,8.2,8.2,83,0.00,,,0.00,VWS V14.01,2013-11-26 13:22:00,
2013-11-26 07:27:00,28.5,24.0,30.15,WNW,292,8.2,8.2,83,0.00,,,0.00,VWS V14.01,2013-11-26 13:27:00,
2013-11-26 07:32:00,28.5,24.0,30.14,WNW,292,6.4,6.4,83,0.00,,,0.00,VWS V14.01,2013-11-26 13:32:00,
2013-11-26 07:37:00,28.7,24.2,30.15,WNW,292,4.9,4.9,83,0.00,,,0.00,VWS V14.01,2013-11-26 13:37:00,
2013-11-26 07:42:00,28.9,24.4,30.14,WSW,248,0.6,0.6,83,0.00,,,0.00,VWS V14.01,2013-11-26 13:42:00,
2013-11-26 07:47:00,28.9,24.4,30.14,WNW,292,4.9,4.9,83,0.00,,,0.00,VWS V14.01,2013-11-26 13:47:00,
2013-11-26 07:52:00,29.1,24.6,30.15,West,270,3.3,3.3,83,0.00,,,0.00,VWS V14.01,2013-11-26 13:52:00,
2013-11-26 07:57:00,29.1,24.3,30.14,NW,315,8.7,8.7,82,0.00,,,0.00,VWS V14.01,2013-11-26 13:57:00,
2013-11-26 08:02:00,29.3,24.5,30.14,WNW,292,2.4,2.4,82,0.00,,,0.00,VWS V14.01,2013-11-26 14:02:00,
2013-11-26 08:07:00,29.4,24.6,30.14,WNW,292,8.0,8.0,82,0.00,,,0.12,VWS V14.01,2013-11-26 14:07:00,
2013-11-26 08:12:00,29.6,24.8,30.14,WNW,292,7.6,7.6,82,0.00,,,0.00,VWS V14.01,2013-11-26 14:12:00,
2013-11-26 08:17:00,29.8,24.7,30.14,WNW,292,6.4,6.4,81,0.00,,,0.00,VWS V14.01,2013-11-26 14:17:00,
2013-11-26 08:22:00,29.8,24.7,30.15,WNW,292,3.1,3.1,81,0.00,,,0.00,VWS V14.01,2013-11-26 14:22:00,
2013-11-26 08:27:00,30.0,24.9,30.15,NNW,338,3.3,3.3,81,0.00,,,0.00,VWS V14.01,2013-11-26 14:27:00,
2013-11-26 08:32:00,30.0,24.6,30.15,North,0,8.7,8.7,80,0.00,,,0.00,VWS V14.01,2013-11-26 14:32:00,
2013-11-26 08:37:00,30.0,24.0,30.15,WNW,292,7.1,7.1,78,0.00,,,0.00,VWS V14.01,2013-11-26 14:37:00,
2013-11-26 08:42:00,30.0,23.7,30.15,NW,315,5.1,5.1,77,0.00,,,0.00,VWS V14.01,2013-11-26 14:42:00,
2013-11-26 08:47:00,30.0,23.7,30.15,NW,315,0.0,0.0,77,0.00,,,0.00,VWS V14.01,2013-11-26 14:47:00,
2013-11-26 08:52:00,30.0,23.4,30.16,WNW,292,0.0,0.0,76,0.00,,,0.00,VWS V14.01,2013-11-26 14:52:00,
2013-11-26 08:57:00,30.0,23.4,30.16,NNE,22,6.9,6.9,76,0.00,,,0.00,VWS V14.01,2013-11-26 14:57:00,
2013-11-26 09:02:00,30.0,23.4,30.16,NNW,338,0.6,0.6,76,0.00,,,0.00,VWS V14.01,2013-11-26 15:02:00,
2013-11-26 09:07:00,30.0,23.4,30.16,WNW,292,3.1,3.1,76,0.00,,,0.00,VWS V14.01,2013-11-26 15:07:00,
2013-11-26 09:12:00,30.0,23.0,30.16,NW,315,9.3,9.3,75,0.00,,,0.00,VWS V14.01,2013-11-26 15:12:00,
2013-11-26 09:17:00,30.2,23.2,30.17,NNW,338,6.2,6.2,75,0.00,,,0.00,VWS V14.01,2013-11-26 15:17:00,
2013-11-26 09:22:00,30.2,23.2,30.18,NNE,22,5.8,5.8,75,0.00,,,0.00,VWS V14.01,2013-11-26 15:22:00,
2013-11-26 09:27:00,30.2,23.2,30.18,NNW,338,6.0,6.0,75,0.00,,,0.00,VWS V14.01,2013-11-26 15:27:00,
2013-11-26 09:32:00,30.2,22.9,30.17,NW,315,13.4,13.4,74,0.00,,,0.00,VWS V14.01,2013-11-26 15:32:00,
2013-11-26 09:37:00,30.2,22.9,30.17,NW,315,11.1,11.1,74,0.00,,,0.00,VWS V14.01,2013-11-26 15:37:00,
2013-11-26 09:42:00,30.2,22.9,30.17,WNW,292,4.4,4.4,74,0.00,,,0.00,VWS V14.01,2013-11-26 15:42:00,
2013-11-26 09:47:00,30.3,23.0,30.16,NW,315,0.4,0.4,74,0.00,,,0.00,VWS V14.01,2013-11-26 15:47:00,
2013-11-26 09:52:00,30.5,23.2,30.16,NNW,338,4.9,4.9,74,0.00,,,0.00,VWS V14.01,2013-11-26 15:52:00,
2013-11-26 09:57:00,30.7,23.1,30.17,WNW,292,4.4,4.4,73,0.00,,,0.00,VWS V14.01,2013-11-26 15:57:00,
2013-11-26 10:02:00,30.7,23.1,30.17,West,270,5.5,5.5,73,0.00,,,0.00,VWS V14.01,2013-11-26 16:02:00,
2013-11-26 10:07:00,30.7,22.8,30.16,NW,315,8.2,8.2,72,0.00,,,0.00,VWS V14.01,2013-11-26 16:07:00,
2013-11-26 10:12:00,30.7,22.8,30.17,WNW,292,3.1,3.1,72,0.00,,,0.00,VWS V14.01,2013-11-26 16:12:00,
2013-11-26 10:17:00,31.2,23.2,30.17,NNE,22,5.5,5.5,72,0.00,,,0.00,VWS V14.01,2013-11-26 16:17:00,
2013-11-26 10:22:00,31.4,23.1,30.17,NW,315,4.9,4.9,71,0.00,,,0.00,VWS V14.01,2013-11-26 16:22:00,
2013-11-26 10:27:00,31.2,22.9,30.17,West,270,6.4,6.4,71,0.00,,,0.00,VWS V14.01,2013-11-26 16:27:00,
2013-11-26 10:32:00,30.7,22.4,30.17,WNW,292,8.2,8.2,71,0.00,,,0.00,VWS V14.01,2013-11-26 16:32:00,
2013-11-26 10:37:00,30.5,22.6,30.17,NNW,338,4.0,4.0,72,0.00,,,0.00,VWS V14.01,2013-11-26 16:37:00,
2013-11-26 10:42:00,30.7,23.1,30.18,WNW,292,8.7,8.7,73,0.00,,,0.00,VWS V14.01,2013-11-26 16:42:00,
2013-11-26 10:47:00,30.7,23.1,30.18,WNW,292,3.3,3.3,73,0.00,,,0.00,VWS V14.01,2013-11-26 16:47:00,
2013-11-26 10:52:00,30.7,23.1,30.17,North,0,2.9,2.9,73,0.00,,,0.00,VWS V14.01,2013-11-26 16:52:00,
2013-11-26 10:57:00,30.7,22.8,30.17,North,0,14.0,14.0,72,0.00,,,0.00,VWS V14.01,2013-11-26 16:57:00,
2013-11-26 11:02:00,30.5,22.9,30.17,NNW,338,8.7,8.7,73,0.00,,,0.00,VWS V14.01,2013-11-26 17:02:00,
2013-11-26 11:07:00,30.7,23.1,30.17,WNW,292,10.2,10.2,73,0.00,,,0.00,VWS V14.01,2013-11-26 17:07:00,
2013-11-26 11:12:00,30.3,22.7,30.17,WNW,292,5.5,5.5,73,0.00,,,0.12,VWS V14.01,2013-11-26 17:12:00,
2013-11-26 11:17:00,30.2,22.6,30.17,WNW,292,11.1,11.1,73,0.00,,,0.00,VWS V14.01,2013-11-26 17:17:00,
2013-11-26 11:22:00,30.0,22.7,30.17,WNW,292,7.3,7.3,74,0.00,,,0.00,VWS V14.01,2013-11-26 17:22:00,
2013-11-26 11:27:00,30.0,22.7,30.17,West,270,6.0,6.0,74,0.00,,,0.00,VWS V14.01,2013-11-26 17:27:00,
2013-11-26 11:32:00,30.0,22.7,30.17,WNW,292,6.2,6.2,74,0.00,,,0.00,VWS V14.01,2013-11-26 17:32:00,
2013-11-26 11:37:00,30.0,22.4,30.17,West,270,12.5,12.5,73,0.00,,,0.00,VWS V14.01,2013-11-26 17:37:00,
2013-11-26 11:42:00,29.4,21.8,30.17,NNW,338,8.0,8.0,73,0.00,,,0.00,VWS V14.01,2013-11-26 17:42:00,
2013-11-26 11:47:00,29.4,21.8,30.18,North,0,3.1,3.1,73,0.00,,,0.00,VWS V14.01,2013-11-26 17:47:00,
2013-11-26 11:52:00,30.0,22.1,30.18,North,0,9.6,9.6,72,0.00,,,0.00,VWS V14.01,2013-11-26 17:52:00,
2013-11-26 11:57:00,29.8,21.6,30.18,WNW,292,7.3,7.3,71,0.00,,,0.00,VWS V14.01,2013-11-26 17:57:00,
2013-11-26 12:02:00,30.0,21.4,30.17,NNW,338,6.9,6.9,70,0.00,,,0.00,VWS V14.01,2013-11-26 18:02:00,
2013-11-26 12:07:00,30.0,21.1,30.17,NE,45,13.6,13.6,69,0.00,,,0.00,VWS V14.01,2013-11-26 18:07:00,
2013-11-26 12:12:00,30.5,20.5,30.17,NW,315,7.1,7.1,66,0.00,,,0.00,VWS V14.01,2013-11-26 18:12:00,
2013-11-26 12:17:00,30.7,21.1,30.17,NW,315,7.3,7.3,67,0.00,,,0.00,VWS V14.01,2013-11-26 18:17:00,
2013-11-26 12:22:00,30.5,20.5,30.16,North,0,3.3,3.3,66,0.00,,,0.00,VWS V14.01,2013-11-26 18:22:00,
2013-11-26 12:27:00,30.7,20.7,30.17,NNE,22,6.4,6.4,66,0.00,,,0.00,VWS V14.01,2013-11-26 18:27:00,
2013-11-26 12:32:00,30.5,19.8,30.17,NW,315,7.1,7.1,64,0.00,,,0.00,VWS V14.01,2013-11-26 18:32:00,
2013-11-26 12:37:00,29.8,19.5,30.17,North,0,9.3,9.3,65,0.00,,,0.00,VWS V14.01,2013-11-26 18:37:00,
2013-11-26 12:42:00,30.9,19.8,30.17,NW,315,6.4,6.4,63,0.00,,,0.00,VWS V14.01,2013-11-26 18:42:00,
2013-11-26 12:47:00,31.8,19.9,30.17,West,270,5.3,5.3,61,0.00,,,0.00,VWS V14.01,2013-11-26 18:47:00,
2013-11-26 12:52:00,32.7,20.4,30.17,NW,315,11.8,11.8,60,0.00,,,0.00,VWS V14.01,2013-11-26 18:52:00,
2013-11-26 12:57:00,33.0,20.2,30.17,WSW,248,7.8,7.8,59,0.00,,,0.00,VWS V14.01,2013-11-26 18:57:00,
2013-11-26 13:02:00,33.8,21.0,30.17,NW,315,8.9,8.9,59,0.00,,,0.00,VWS V14.01,2013-11-26 19:02:00,
2013-11-26 13:07:00,33.4,19.0,30.18,West,270,12.3,12.3,55,0.00,,,0.00,VWS V14.01,2013-11-26 19:07:00,
2013-11-26 13:12:00,30.5,17.5,30.18,WSW,248,6.9,6.9,58,0.00,,,0.00,VWS V14.01,2013-11-26 19:12:00,
2013-11-26 13:17:00,30.5,17.9,30.18,WNW,292,9.1,9.1,59,0.00,,,0.00,VWS V14.01,2013-11-26 19:17:00,
2013-11-26 13:22:00,31.6,18.5,30.18,NW,315,10.7,10.7,58,0.00,,,0.00,VWS V14.01,2013-11-26 19:22:00,
2013-11-26 13:27:00,31.8,18.3,30.18,WNW,292,5.8,5.8,57,0.00,,,0.00,VWS V14.01,2013-11-26 19:27:00,
2013-11-26 13:32:00,31.2,17.3,30.18,WNW,292,2.6,2.6,56,0.00,,,0.00,VWS V14.01,2013-11-26 19:32:00,
2013-11-26 13:37:00,30.5,16.7,30.18,WNW,292,6.2,6.2,56,0.00,,,0.00,VWS V14.01,2013-11-26 19:37:00,
2013-11-26 13:42:00,31.1,17.2,30.18,NW,315,17.2,17.2,56,0.00,,,0.00,VWS V14.01,2013-11-26 19:42:00,
2013-11-26 13:47:00,31.2,16.9,30.18,North,0,7.8,7.8,55,0.00,,,0.00,VWS V14.01,2013-11-26 19:47:00,
2013-11-26 13:52:00,29.4,15.2,30.18,WSW,248,12.7,12.7,55,0.00,,,0.00,VWS V14.01,2013-11-26 19:52:00,
2013-11-26 13:57:00,28.5,15.6,30.18,WNW,292,6.9,6.9,58,0.00,,,0.00,VWS V14.01,2013-11-26 19:57:00,
2013-11-26 14:02:00,29.4,15.7,30.18,WSW,248,11.4,11.4,56,0.00,,,0.00,VWS V14.01,2013-11-26 20:02:00,
2013-11-26 14:07:00,30.0,16.2,30.19,NW,315,11.6,11.6,56,0.00,,,0.00,VWS V14.01,2013-11-26 20:07:00,
2013-11-26 14:12:00,29.8,15.2,30.19,NNW,338,8.5,8.5,54,0.00,,,0.00,VWS V14.01,2013-11-26 20:12:00,
2013-11-26 14:17:00,29.6,15.0,30.19,WNW,292,5.8,5.8,54,0.00,,,0.00,VWS V14.01,2013-11-26 20:17:00,
2013-11-26 14:22:00,30.0,15.4,30.19,West,270,8.2,8.2,54,0.00,,,0.00,VWS V14.01,2013-11-26 20:22:00,
2013-11-26 14:27:00,30.0,15.4,30.19,North,0,18.1,18.1,54,0.00,,,0.00,VWS V14.01,2013-11-26 20:27:00,
2013-11-26 14:32:00,29.8,14.8,30.19,West,270,4.2,4.2,53,0.00,,,0.00,VWS V14.01,2013-11-26 20:32:00,
2013-11-26 14:37:00,29.6,14.6,30.19,NW,315,6.4,6.4,53,0.00,,,0.00,VWS V14.01,2013-11-26 20:37:00,
2013-11-26 14:42:00,29.3,13.9,30.19,NW,315,8.5,8.5,52,0.00,,,0.00,VWS V14.01,2013-11-26 20:42:00,
2013-11-26 14:47:00,29.1,13.7,30.19,NNW,338,13.6,13.6,52,0.00,,,0.00,VWS V14.01,2013-11-26 20:47:00,
2013-11-26 14:52:00,28.7,12.0,30.19,WNW,292,16.1,16.1,49,0.00,,,0.00,VWS V14.01,2013-11-26 20:52:00,
2013-11-26 14:57:00,28.5,11.8,30.19,North,0,9.3,9.3,49,0.00,,,0.00,VWS V14.01,2013-11-26 20:57:00,
2013-11-26 15:02:00,28.5,12.2,30.19,NW,315,10.0,10.0,50,0.00,,,0.00,VWS V14.01,2013-11-26 21:02:00,
2013-11-26 15:07:00,28.2,12.0,30.20,WNW,292,8.0,8.0,50,0.00,,,0.00,VWS V14.01,2013-11-26 21:07:00,
2013-11-26 15:12:00,28.4,12.6,30.20,WNW,292,2.6,2.6,51,0.00,,,0.00,VWS V14.01,2013-11-26 21:12:00,
2013-11-26 15:17:00,28.2,12.0,30.20,WNW,292,7.1,7.1,50,0.00,,,0.00,VWS V14.01,2013-11-26 21:17:00,
2013-11-26 15:22:00,27.6,11.4,30.20,WNW,292,7.8,7.8,50,0.00,,,0.00,VWS V14.01,2013-11-26 21:22:00,
2013-11-26 15:27:00,27.3,11.1,30.20,NNW,338,3.8,3.8,50,0.00,,,0.00,VWS V14.01,2013-11-26 21:27:00,
2013-11-26 15:32:00,27.1,11.4,30.20,NNW,338,13.8,13.8,51,0.00,,,0.00,VWS V14.01,2013-11-26 21:32:00,
2013-11-26 15:37:00,26.7,11.4,30.20,NNW,338,5.1,5.1,52,0.00,,,0.00,VWS V14.01,2013-11-26 21:37:00,
2013-11-26 15:42:00,26.4,11.2,30.19,NNW,338,4.6,4.6,52,0.00,,,0.00,VWS V14.01,2013-11-26 21:42:00,
2013-11-26 15:47:00,25.8,10.6,30.20,NNW,338,18.7,18.7,52,0.00,,,0.00,VWS V14.01,2013-11-26 21:47:00,
2013-11-26 15:52:00,25.1,10.4,30.20,North,0,5.8,5.8,53,0.00,,,0.00,VWS V14.01,2013-11-26 21:52:00,
2013-11-26 15:57:00,24.0,9.8,30.21,NNE,22,14.7,14.7,54,0.00,,,0.00,VWS V14.01,2013-11-26 21:57:00,
2013-11-26 16:02:00,23.7,9.5,30.21,NNE,22,6.4,6.4,54,0.00,,,0.00,VWS V14.01,2013-11-26 22:02:00,
2013-11-26 16:07:00,23.5,9.3,30.21,North,0,19.6,19.6,54,0.00,,,0.00,VWS V14.01,2013-11-26 22:07:00,
2013-11-26 16:12:00,22.8,9.1,30.22,North,0,13.8,13.8,55,0.00,,,0.00,VWS V14.01,2013-11-26 22:12:00,
2013-11-26 16:17:00,22.6,8.9,30.22,NW,315,6.7,6.7,55,0.00,,,0.00,VWS V14.01,2013-11-26 22:17:00,
2013-11-26 16:22:00,22.4,8.3,30.22,NNW,338,7.8,7.8,54,0.00,,,0.00,VWS V14.01,2013-11-26 22:22:00,
2013-11-26 16:27:00,22.2,7.7,30.22,NNW,338,12.3,12.3,53,0.00,,,0.00,VWS V14.01,2013-11-26 22:27:00,
2013-11-26 16:32:00,21.9,7.8,30.23,North,0,13.1,13.1,54,0.00,,,0.00,VWS V14.01,2013-11-26 22:32:00,
2013-11-26 16:37:00,21.7,7.2,30.23,North,0,17.4,17.4,53,0.00,,,0.00,VWS V14.01,2013-11-26 22:37:00,
2013-11-26 16:42:00,21.5,7.0,30.23,North,0,8.5,8.5,53,0.00,,,0.00,VWS V14.01,2013-11-26 22:42:00,
2013-11-26 16:47:00,21.3,6.8,30.23,NNW,338,5.8,5.8,53,0.00,,,0.00,VWS V14.01,2013-11-26 22:47:00,
2013-11-26 16:52:00,21.3,6.8,30.23,WNW,292,9.1,9.1,53,0.00,,,0.00,VWS V14.01,2013-11-26 22:52:00,
2013-11-26 16:57:00,21.0,7.0,30.23,NNW,338,3.1,3.1,54,0.00,,,0.00,VWS V14.01,2013-11-26 22:57:00,
2013-11-26 17:02:00,21.0,7.0,30.23,NNE,22,12.7,12.7,54,0.00,,,0.00,VWS V14.01,2013-11-26 23:02:00,
2013-11-26 17:07:00,20.8,7.2,30.24,NW,315,5.1,5.1,55,0.00,,,0.00,VWS V14.01,2013-11-26 23:07:00,
2013-11-26 17:12:00,20.8,7.2,30.24,NW,315,5.5,5.5,55,0.00,,,0.00,VWS V14.01,2013-11-26 23:12:00,
2013-11-26 17:17:00,20.4,7.2,30.24,NW,315,5.3,5.3,56,0.00,,,0.00,VWS V14.01,2013-11-26 23:17:00,
2013-11-26 17:22:00,20.4,7.2,30.25,NNW,338,10.2,10.2,56,0.00,,,0.00,VWS V14.01,2013-11-26 23:22:00,
2013-11-26 17:27:00,20.4,7.6,30.25,NW,315,5.3,5.3,57,0.00,,,0.00,VWS V14.01,2013-11-26 23:27:00,
2013-11-26 17:32:00,20.3,7.1,30.25,NNW,338,4.9,4.9,56,0.00,,,0.00,VWS V14.01,2013-11-26 23:32:00,
2013-11-26 17:37:00,20.1,7.3,30.26,North,0,8.7,8.7,57,0.00,,,0.00,VWS V14.01,2013-11-26 23:37:00,
2013-11-26 17:42:00,20.1,7.3,30.26,NNW,338,12.5,12.5,57,0.00,,,0.00,VWS V14.01,2013-11-26 23:42:00,
2013-11-26 17:47:00,19.9,7.1,30.26,NNW,338,10.9,10.9,57,0.00,,,0.00,VWS V14.01,2013-11-26 23:47:00,
2013-11-26 17:52:00,19.9,7.1,30.26,NNW,338,8.2,8.2,57,0.00,,,0.00,VWS V14.01,2013-11-26 23:52:00,
2013-11-26 17:57:00,19.5,6.8,30.26,North,0,3.3,3.3,57,0.00,,,0.00,VWS V14.01,2013-11-26 23:57:00,
2013-11-26 18:02:00,19.5,7.1,30.26,NNW,338,6.2,6.2,58,0.00,,,0.00,VWS V14.01,2013-11-27 00:02:00,
2013-11-26 18:07:00,19.2,7.2,30.27,NW,315,6.7,6.7,59,0.00,,,0.00,VWS V14.01,2013-11-27 00:07:00,
2013-11-26 18:12:00,19.0,7.1,30.27,NNW,338,11.1,11.1,59,0.00,,,0.00,VWS V14.01,2013-11-27 00:12:00,
2013-11-26 18:17:00,19.0,7.1,30.26,WNW,292,6.9,6.9,59,0.00,,,0.00,VWS V14.01,2013-11-27 00:17:00,
2013-11-26 18:22:00,18.8,6.9,30.27,NNW,338,7.1,7.1,59,0.00,,,0.00,VWS V14.01,2013-11-27 00:22:00,
2013-11-26 18:27:00,18.6,7.0,30.28,North,0,5.1,5.1,60,0.00,,,0.00,VWS V14.01,2013-11-27 00:27:00,
2013-11-26 18:32:00,18.6,7.0,30.28,NNW,338,4.9,4.9,60,0.00,,,0.00,VWS V14.01,2013-11-27 00:32:00,
2013-11-26 18:37:00,18.3,6.8,30.27,North,0,6.0,6.0,60,0.00,,,0.00,VWS V14.01,2013-11-27 00:37:00,
2013-11-26 18:42:00,18.3,6.8,30.28,NW,315,7.8,7.8,60,0.00,,,0.00,VWS V14.01,2013-11-27 00:42:00,
2013-11-26 18:47:00,18.3,7.1,30.28,NW,315,8.9,8.9,61,0.00,,,0.00,VWS V14.01,2013-11-27 00:47:00,
2013-11-26 18:52:00,18.3,7.1,30.28,North,0,6.0,6.0,61,0.00,,,0.00,VWS V14.01,2013-11-27 00:52:00,
2013-11-26 18:57:00,18.1,6.9,30.28,NNW,338,7.8,7.8,61,0.00,,,0.00,VWS V14.01,2013-11-27 00:57:00,
2013-11-26 19:02:00,18.1,6.9,30.28,WNW,292,7.6,7.6,61,0.00,,,0.00,VWS V14.01,2013-11-27 01:02:00,
2013-11-26 19:07:00,17.9,6.7,30.29,North,0,6.9,6.9,61,0.00,,,0.00,VWS V14.01,2013-11-27 01:07:00,
2013-11-26 19:12:00,17.7,6.9,30.29,NNW,338,5.1,5.1,62,0.00,,,0.00,VWS V14.01,2013-11-27 01:12:00,
2013-11-26 19:17:00,17.6,6.8,30.29,NW,315,2.4,2.4,62,0.00,,,0.00,VWS V14.01,2013-11-27 01:17:00,
2013-11-26 19:22:00,17.4,6.6,30.29,North,0,8.2,8.2,62,0.00,,,0.00,VWS V14.01,2013-11-27 01:22:00,
2013-11-26 19:27:00,17.4,7.0,30.29,NNW,338,9.1,9.1,63,0.00,,,0.00,VWS V14.01,2013-11-27 01:27:00,
2013-11-26 19:31:00,17.4,7.0,30.29,North,0,8.2,8.2,63,0.00,,,0.00,VWS V14.01,2013-11-27 01:31:00,
2013-11-26 19:36:00,17.7,6.9,30.29,North,0,11.8,11.8,62,0.00,,,0.00,VWS V14.01,2013-11-27 01:36:00,
2013-11-26 19:41:00,17.7,6.9,30.28,North,0,15.4,15.4,62,0.00,,,0.00,VWS V14.01,2013-11-27 01:41:00,
2013-11-26 19:46:00,17.7,6.9,30.29,NNW,338,4.4,4.4,62,0.00,,,0.00,VWS V14.01,2013-11-27 01:46:00,
2013-11-26 19:51:00,17.4,6.6,30.29,NNW,338,6.4,6.4,62,0.00,,,0.00,VWS V14.01,2013-11-27 01:51:00,
2013-11-26 19:56:00,17.4,7.0,30.29,North,0,10.2,10.2,63,0.00,,,0.00,VWS V14.01,2013-11-27 01:56:00,
2013-11-26 20:01:00,17.4,7.0,30.29,NNW,338,6.4,6.4,63,0.00,,,0.00,VWS V14.01,2013-11-27 02:01:00,
2013-11-26 20:06:00,17.2,6.8,30.29,NNW,338,10.0,10.0,63,0.00,,,0.00,VWS V14.01,2013-11-27 02:06:00,
2013-11-26 20:12:00,17.2,6.8,30.29,NNW,338,8.7,8.7,63,0.00,,,0.00,VWS V14.01,2013-11-27 02:12:00,
2013-11-26 20:17:00,17.2,6.8,30.29,North,0,10.2,10.2,63,0.00,,,0.00,VWS V14.01,2013-11-27 02:17:00,
2013-11-26 20:22:00,16.8,6.4,30.30,NNE,22,7.6,7.6,63,0.00,,,0.00,VWS V14.01,2013-11-27 02:22:00,
2013-11-26 20:27:00,16.5,6.5,30.30,North,0,6.9,6.9,64,0.00,,,0.00,VWS V14.01,2013-11-27 02:27:00,
2013-11-26 20:32:00,16.3,6.6,30.30,North,0,6.4,6.4,65,0.00,,,0.00,VWS V14.01,2013-11-27 02:32:00,
2013-11-26 20:37:00,16.1,6.4,30.30,North,0,5.8,5.8,65,0.00,,,0.00,VWS V14.01,2013-11-27 02:37:00,
2013-11-26 20:42:00,16.1,6.4,30.30,North,0,6.7,6.7,65,0.00,,,0.00,VWS V14.01,2013-11-27 02:42:00,
2013-11-26 20:47:00,15.8,6.1,30.30,North,0,5.8,5.8,65,0.00,,,0.00,VWS V14.01,2013-11-27 02:47:00,
2013-11-26 20:52:00,15.6,5.9,30.29,North,0,6.4,6.4,65,0.00,,,0.00,VWS V14.01,2013-11-27 02:52:00,
2013-11-26 20:57:00,15.2,5.9,30.30,NW,315,2.4,2.4,66,0.00,,,0.00,VWS V14.01,2013-11-27 02:57:00,
2013-11-26 21:02:00,15.0,5.7,30.30,North,0,3.1,3.1,66,0.00,,,0.00,VWS V14.01,2013-11-27 03:02:00,
2013-11-26 21:07:00,14.7,5.4,30.30,NNW,338,1.1,1.1,66,0.00,,,0.00,VWS V14.01,2013-11-27 03:07:00,
2013-11-26 21:11:00,14.3,5.4,30.30,NNW,338,0.0,0.0,67,0.00,,,0.00,VWS V14.01,2013-11-27 03:11:00,
2013-11-26 21:16:00,14.1,5.2,30.31,WNW,292,2.2,2.2,67,0.00,,,0.00,VWS V14.01,2013-11-27 03:16:00,
2013-11-26 21:21:00,13.8,4.9,30.31,NNW,338,2.2,2.2,67,0.00,,,0.00,VWS V14.01,2013-11-27 03:21:00,
2013-11-26 21:26:00,13.6,5.0,30.31,NNW,338,0.0,0.0,68,0.00,,,0.00,VWS V14.01,2013-11-27 03:26:00,
2013-11-26 21:31:00,13.2,4.6,30.31,NW,315,1.3,1.3,68,0.00,,,0.00,VWS V14.01,2013-11-27 03:31:00,
2013-11-26 21:36:00,13.1,4.5,30.31,NNW,338,0.0,0.0,68,0.00,,,0.00,VWS V14.01,2013-11-27 03:36:00,
2013-11-26 21:41:00,12.9,4.7,30.31,NNW,338,1.1,1.1,69,0.00,,,0.00,VWS V14.01,2013-11-27 03:41:00,
2013-11-26 21:46:00,12.7,4.5,30.31,NNW,338,2.2,2.2,69,0.00,,,0.00,VWS V14.01,2013-11-27 03:46:00,
2013-11-26 21:51:00,12.9,5.0,30.31,NNW,338,0.0,0.0,70,0.00,,,0.00,VWS V14.01,2013-11-27 03:51:00,
2013-11-26 21:56:00,12.9,5.0,30.31,North,0,1.5,1.5,70,0.00,,,0.00,VWS V14.01,2013-11-27 03:56:00,
2013-11-26 22:01:00,12.7,4.8,30.31,NNW,338,1.7,1.7,70,0.00,,,0.00,VWS V14.01,2013-11-27 04:01:00,
2013-11-26 22:06:00,12.3,4.4,30.31,NNW,338,4.9,4.9,70,0.00,,,0.00,VWS V14.01,2013-11-27 04:06:00,
2013-11-26 22:11:00,12.3,4.7,30.31,NNW,338,3.8,3.8,71,0.00,,,0.00,VWS V14.01,2013-11-27 04:11:00,
2013-11-26 22:16:00,12.3,4.7,30.31,NNW,338,0.6,0.6,71,0.00,,,0.00,VWS V14.01,2013-11-27 04:16:00,
2013-11-26 22:21:00,12.2,4.6,30.31,WNW,292,3.5,3.5,71,0.00,,,0.00,VWS V14.01,2013-11-27 04:21:00,
2013-11-26 22:26:00,12.0,4.7,30.31,NNW,338,2.6,2.6,72,0.00,,,0.00,VWS V14.01,2013-11-27 04:26:00,
2013-11-26 22:31:00,11.8,4.5,30.31,North,0,3.3,3.3,72,0.00,,,0.00,VWS V14.01,2013-11-27 04:31:00,
2013-11-26 22:36:00,11.8,4.5,30.31,NNW,338,4.2,4.2,72,0.00,,,0.00,VWS V14.01,2013-11-27 04:36:00,
2013-11-26 22:41:00,11.8,4.5,30.31,NNW,338,2.6,2.6,72,0.00,,,0.00,VWS V14.01,2013-11-27 04:41:00,
2013-11-26 22:46:00,11.8,4.8,30.31,NNW,338,0.6,0.6,73,0.00,,,0.00,VWS V14.01,2013-11-27 04:46:00,
2013-11-26 22:51:00,11.6,4.6,30.32,NW,315,0.8,0.8,73,0.00,,,0.00,VWS V14.01,2013-11-27 04:51:00,
2013-11-26 22:56:00,11.8,4.8,30.32,NNW,338,7.1,7.1,73,0.00,,,0.00,VWS V14.01,2013-11-27 04:56:00,
2013-11-26 23:01:00,11.8,4.8,30.32,NNW,338,5.1,5.1,73,0.00,,,0.00,VWS V14.01,2013-11-27 05:01:00,
2013-11-26 23:06:00,11.8,4.8,30.32,NNW,338,4.2,4.2,73,0.00,,,0.00,VWS V14.01,2013-11-27 05:06:00,
2013-11-26 23:11:00,11.8,4.8,30.32,North,0,8.5,8.5,73,0.00,,,0.00,VWS V14.01,2013-11-27 05:11:00,
2013-11-26 23:16:00,11.8,5.1,30.32,North,0,7.6,7.6,74,0.00,,,0.00,VWS V14.01,2013-11-27 05:16:00,
2013-11-26 23:21:00,12.0,5.0,30.32,North,0,7.1,7.1,73,0.00,,,0.00,VWS V14.01,2013-11-27 05:21:00,
2013-11-26 23:26:00,12.0,5.0,30.32,North,0,6.7,6.7,73,0.00,,,0.00,VWS V14.01,2013-11-27 05:26:00,
2013-11-26 23:31:00,11.8,4.8,30.32,NW,315,8.0,8.0,73,0.00,,,0.00,VWS V14.01,2013-11-27 05:31:00,
2013-11-26 23:36:00,11.8,4.8,30.31,North,0,6.2,6.2,73,0.00,,,0.00,VWS V14.01,2013-11-27 05:36:00,
2013-11-26 23:41:00,11.6,4.6,30.32,North,0,6.9,6.9,73,0.00,,,0.00,VWS V14.01,2013-11-27 05:41:00,
2013-11-26 23:46:00,11.6,4.6,30.32,North,0,6.7,6.7,73,0.00,,,0.00,VWS V14.01,2013-11-27 05:46:00,
2013-11-26 23:51:00,11.4,4.4,30.32,North,0,7.1,7.1,73,0.00,,,0.00,VWS V14.01,2013-11-27 05:51:00,
2013-11-26 23:56:00,11.4,4.7,30.32,North,0,1.1,1.1,74,0.00,,,0.00,VWS V14.01,2013-11-27 05:56:00,